DeKalb, IL

5:42 PM CDT on March 27, 2017 (GMT -0500)
De Kalb Taylor Municipal

Weather History for KDKB - March, 2013

Change the Weather History Date:

Tuesday, March 12, 2013

  Actual Average (KARR) Record (KARR)
Temperature  
Mean Temperature 28 °F -  
Max Temperature 34 °F 40 °F 64 °F (2016)
Min Temperature 24 °F 23 °F 5 °F (1999)
Degree Days  
Heating Degree Days 36    
Moisture  
Dew Point 24 °F    
Average Humidity 82    
Maximum Humidity 89    
Minimum Humidity 73    
Precipitation  
Precipitation 0.00 in - - ()
Sea Level Pressure  
Sea Level Pressure 29.90 in    
Wind  
Wind Speed 17 mph (West)    
Max Wind Speed 26 mph    
Max Gust Speed 33 mph    
Visibility 9 miles    
Events Snow    
Averages and records for this station are not official NWS values.
T = Trace of Precipitation, MM = Missing Value Source: NWS Daily Summary

Daily Weather History Graph

Daily Weather History Graph

Search for Another Location

Airport or City:

Trip Planner

Search our weather history database for the weather conditions in past years. The results will help you decide how hot, cold, wet, or windy it might be!

Date:

Astronomy

Mar. 12, 2013 Rise Set
Actual Time 7:11 AM CDT 6:58 PM CDT
Civil Twilight 6:43 AM CDT 7:26 PM CDT
Nautical Twilight 6:11 AM CDT 7:58 PM CDT
Astronomical Twilight 5:38 AM CDT 8:31 PM CDT
Moon 7:16 AM CDT (3/12) 8:15 PM CDT (3/12)
Length of Visible Light 12h 42m
Length of Day
11h 46m
New Moon, 1% of the Moon is Illuminated
Mar 12
New Moon
Mar 19
First Quarter
Mar 27
Full
Apr 2
Last Quarter
Apr 10
New

Hourly Weather History & Observations

Time (CDT) Temp. Windchill Dew Point Humidity Pressure Visibility Wind Dir Wind Speed Gust Speed Precip Events Conditions
12:15 AM 30.2 °F 19.8 °F 27.1 °F 88% 29.79 in 10.0 mi West 13.8 mph - N/A   Overcast
12:35 AM 30.2 °F 18.1 °F 27.0 °F 88% 29.79 in 10.0 mi West 18.4 mph 24.2 mph N/A   Overcast
12:55 AM 30.2 °F 18.9 °F 26.6 °F 86% 29.80 in 10.0 mi West 16.1 mph - N/A   Overcast
1:15 AM 30.2 °F 19.3 °F 26.6 °F 86% 29.81 in 10.0 mi West 15.0 mph - N/A   Overcast
1:35 AM 30.2 °F 19.8 °F 26.6 °F 86% 29.81 in 10.0 mi West 13.8 mph 23.0 mph N/A   Overcast
1:55 AM 29.8 °F 18.4 °F 26.2 °F 86% 29.81 in 10.0 mi West 16.1 mph 20.7 mph N/A   Overcast
2:15 AM 29.1 °F 17.1 °F 25.7 °F 87% 29.82 in 10.0 mi West 17.3 mph 20.7 mph N/A   Overcast
2:35 AM 28.9 °F 17.3 °F 25.3 °F 86% 29.83 in 10.0 mi West 16.1 mph - N/A   Overcast
2:55 AM 28.6 °F 15.6 °F 25.3 °F 88% 29.83 in 10.0 mi West 19.6 mph 24.2 mph N/A   Overcast
3:15 AM 28.4 °F 15.4 °F 24.8 °F 86% 29.83 in 10.0 mi West 19.6 mph - N/A   Overcast
3:35 AM 28.8 °F 17.5 °F 25.2 °F 86% 29.84 in 10.0 mi West 15.0 mph - N/A   Overcast
3:55 AM 28.4 °F 16.6 °F 24.8 °F 86% 29.84 in 5.0 mi West 16.1 mph 21.9 mph N/A Snow Light Snow
4:15 AM 27.9 °F 15.5 °F 24.8 °F 88% 29.84 in 3.0 mi West 17.3 mph 24.2 mph N/A Snow Light Snow
4:35 AM 27.9 °F 15.9 °F 24.8 °F 88% 29.84 in 3.0 mi West 16.1 mph 19.6 mph N/A Snow Light Snow
4:55 AM 27.5 °F 14.6 °F 24.6 °F 89% 29.85 in 3.0 mi West 18.4 mph 24.2 mph N/A Snow Light Snow
5:15 AM 27.3 °F 16.6 °F 24.3 °F 88% 29.85 in 4.0 mi West 12.7 mph - N/A Snow Light Snow
5:35 AM 27.1 °F 15.4 °F 23.9 °F 88% 29.86 in 5.0 mi West 15.0 mph - N/A   Mostly Cloudy
5:55 AM 27.1 °F 14.1 °F 23.9 °F 88% 29.86 in 10.0 mi West 18.4 mph 21.9 mph N/A   Mostly Cloudy
6:15 AM 27.0 °F 14.7 °F 23.4 °F 86% 29.87 in 10.0 mi West 16.1 mph - N/A   Overcast
6:35 AM 26.2 °F 14.7 °F 22.8 °F 87% 29.87 in 10.0 mi West 13.8 mph - N/A   Scattered Clouds
6:55 AM 26.1 °F 16.2 °F 22.5 °F 86% 29.88 in 10.0 mi WSW 10.4 mph - N/A   Clear
7:15 AM 25.7 °F 14.0 °F 22.1 °F 86% 29.89 in 10.0 mi West 13.8 mph - N/A   Clear
7:35 AM 24.8 °F 12.9 °F 21.2 °F 86% 29.88 in 10.0 mi WSW 13.8 mph - N/A   Clear
7:55 AM 25.5 °F 13.3 °F 21.7 °F 86% 29.89 in 10.0 mi West 15.0 mph 19.6 mph N/A   Clear
8:15 AM 26.2 °F 13.8 °F 21.9 °F 84% 29.89 in 10.0 mi West 16.1 mph - N/A   Scattered Clouds
8:35 AM 25.9 °F 12.9 °F 20.5 °F 80% 29.89 in 10.0 mi West 17.3 mph - N/A   Mostly Cloudy
8:55 AM 26.6 °F 15.2 °F 21.2 °F 80% 29.89 in 10.0 mi West 13.8 mph 19.6 mph N/A   Scattered Clouds
9:15 AM 26.6 °F 14.7 °F 20.3 °F 77% 29.89 in 10.0 mi West 15.0 mph - N/A   Clear
9:35 AM 27.1 °F 14.9 °F 20.7 °F 77% 29.90 in 10.0 mi West 16.1 mph - N/A   Clear
9:55 AM 27.9 °F 15.5 °F 21.0 °F 75% 29.90 in 10.0 mi West 17.3 mph - N/A   Clear
10:15 AM 28.2 °F 16.8 °F 21.0 °F 74% 29.91 in 10.0 mi West 15.0 mph 21.9 mph N/A   Clear
10:35 AM 28.2 °F 16.3 °F 20.8 °F 74% 29.91 in 10.0 mi West 16.1 mph 23.0 mph N/A   Mostly Cloudy
10:55 AM 27.9 °F 14.7 °F 21.2 °F 76% 29.92 in 10.0 mi WSW 19.6 mph 23.0 mph N/A   Overcast
11:15 AM 29.3 °F 18.2 °F 23.0 °F 77% 29.92 in 10.0 mi WSW 15.0 mph 21.9 mph N/A   Scattered Clouds
11:35 AM 29.3 °F 17.0 °F 23.5 °F 79% 29.91 in 10.0 mi WSW 18.4 mph 23.0 mph N/A   Mostly Cloudy
11:55 AM 30.7 °F 18.5 °F 25.2 °F 80% 29.91 in 10.0 mi WSW 19.6 mph 24.2 mph N/A   Overcast
12:15 PM 31.6 °F 19.3 °F 25.5 °F 78% 29.92 in 10.0 mi WSW 20.7 mph 26.5 mph N/A   Overcast
12:35 PM 31.5 °F 19.8 °F 26.2 °F 81% 29.92 in 10.0 mi WSW 18.4 mph - N/A   Overcast
12:55 PM 31.1 °F 19.7 °F 25.7 °F 80% 29.91 in 10.0 mi WSW 17.3 mph 23.0 mph N/A   Overcast
1:15 PM 32.0 °F 20.1 °F 26.6 °F 80% 29.91 in 7.0 mi WSW 19.6 mph - N/A Snow Light Snow
1:35 PM 32.4 °F 20.9 °F 27.0 °F 80% 29.90 in 10.0 mi WSW 18.4 mph 23.0 mph N/A   Overcast
1:55 PM 32.9 °F 22.0 °F 27.0 °F 79% 29.90 in 10.0 mi WSW 17.3 mph 25.3 mph N/A   Overcast
2:15 PM 32.5 °F 20.8 °F 26.4 °F 78% 29.90 in 10.0 mi WSW 19.6 mph 26.5 mph N/A   Overcast
2:35 PM 33.3 °F 22.1 °F 27.1 °F 78% 29.89 in 10.0 mi WSW 18.4 mph 27.6 mph N/A   Overcast
2:55 PM 32.9 °F 22.0 °F 28.0 °F 82% 29.90 in 5.0 mi WSW 17.3 mph 28.8 mph N/A Snow Light Snow
3:15 PM 31.8 °F 19.9 °F 28.4 °F 87% 29.90 in 4.0 mi WSW 19.6 mph 27.6 mph N/A Snow Light Snow
3:35 PM 31.8 °F 18.1 °F 27.7 °F 85% 29.90 in 10.0 mi WSW 26.5 mph 33.4 mph N/A   Overcast
3:55 PM 32.0 °F 20.1 °F 27.5 °F 83% 29.90 in 10.0 mi WSW 19.6 mph 29.9 mph N/A   Overcast
4:15 PM 31.6 °F 19.3 °F 27.5 °F 85% 29.91 in 10.0 mi WSW 20.7 mph 27.6 mph N/A   Overcast
4:35 PM 32.5 °F 21.2 °F 28.4 °F 85% 29.90 in 10.0 mi WSW 18.4 mph 24.2 mph N/A   Overcast
4:55 PM 31.5 °F 19.8 °F 27.0 °F 83% 29.90 in 3.0 mi WSW 18.4 mph 23.0 mph N/A Snow Light Snow
5:15 PM 31.1 °F 18.9 °F 27.3 °F 86% 29.90 in 3.0 mi WSW 19.6 mph 24.2 mph N/A Snow Light Snow
5:35 PM 30.7 °F 18.1 °F 27.3 °F 87% 29.90 in 4.0 mi WSW 20.7 mph 24.2 mph N/A Snow Light Snow
5:55 PM 30.6 °F 17.9 °F 27.5 °F 88% 29.91 in 7.0 mi WSW 20.7 mph 26.5 mph N/A Snow Light Snow
6:15 PM 30.6 °F 17.6 °F 27.0 °F 86% 29.91 in 10.0 mi West 21.9 mph 28.8 mph N/A   Overcast
6:35 PM 30.2 °F 16.2 °F 25.3 °F 82% 29.92 in 10.0 mi West 25.3 mph - N/A   Mostly Cloudy
6:55 PM 29.3 °F 15.6 °F 24.1 °F 81% 29.93 in 7.0 mi WNW 23.0 mph 32.2 mph N/A   Overcast
7:15 PM 28.4 °F 15.8 °F 23.5 °F 82% 29.94 in 10.0 mi West 18.4 mph 25.3 mph N/A   Overcast
7:35 PM 28.8 °F 15.9 °F 22.3 °F 77% 29.95 in 10.0 mi WNW 19.6 mph 29.9 mph N/A   Overcast
7:55 PM 28.0 °F 15.7 °F 22.1 °F 78% 29.96 in 10.0 mi WNW 17.3 mph 28.8 mph N/A   Overcast
8:15 PM 27.9 °F 14.4 °F 20.7 °F 74% 29.97 in 10.0 mi WNW 20.7 mph 28.8 mph N/A   Mostly Cloudy
8:35 PM 27.1 °F 12.4 °F 19.4 °F 73% 29.98 in 10.0 mi West 24.2 mph 33.4 mph N/A   Mostly Cloudy
8:55 PM 26.6 °F 12.4 °F 19.9 °F 76% 29.98 in 10.0 mi West 21.9 mph - N/A   Overcast
9:15 PM 26.6 °F 12.0 °F 20.1 °F 77% 29.99 in 10.0 mi West 23.0 mph 28.8 mph N/A   Overcast
9:35 PM 26.1 °F 11.6 °F 19.4 °F 76% 29.99 in 10.0 mi WNW 21.9 mph 28.8 mph N/A   Overcast
9:55 PM 25.7 °F 11.9 °F 19.2 °F 76% 30.00 in 10.0 mi West 19.6 mph 31.1 mph N/A   Overcast
10:15 PM 25.7 °F 11.5 °F 19.8 °F 78% 30.00 in 10.0 mi West 20.7 mph 26.5 mph N/A   Overcast
10:35 PM 25.2 °F 12.0 °F 19.0 °F 78% 30.01 in 10.0 mi West 17.3 mph 28.8 mph N/A   Overcast
10:55 PM 25.2 °F 12.4 °F 19.4 °F 79% 30.01 in 10.0 mi West 16.1 mph 19.6 mph N/A   Overcast
11:15 PM 25.2 °F 12.4 °F 19.4 °F 79% 30.01 in 10.0 mi West 16.1 mph 23.0 mph N/A   Overcast
11:35 PM 24.8 °F 13.4 °F 19.0 °F 79% 30.01 in 10.0 mi WNW 12.7 mph 25.3 mph N/A   Overcast
11:55 PM 24.8 °F 11.1 °F 19.0 °F 79% 30.02 in 10.0 mi West 18.4 mph 23.0 mph N/A   Overcast